LUSAT (LO-19) (20442 NORAD) Tracking and Keplerian Element Data

This shows tracking and keplerian element data for the satellite.

Feedback or suggestion? Click here.




ElementValue
Catalog20442
NameLUSAT (LO-19)
Epoch Orbit81462
Epoch Day286.75568626
Epoch Year2024
RAAN280.1819
Inclination98.8929
Eccentricity0.0011227
Argument of Perigee195.7805
Mean Anonmoly164.303
Mean Motion14.33705104
Decay Rate9.13E-06
L11 20442U 90005G 24286.75568626 .00000913 00000+0 34541-3 0 9995
L22 20442 98.8929 280.1819 0011227 195.7805 164.3030 14.33705104814622



Live tracking and technical data element details for LUSAT (LO-19) (NORAD 20442). LUSAT (LO-19) can be tracked NOW for your location showing map with azimuth and elevation plus other details from your city location.







IsCatalogInMostPopularTable: catalog: 20442, numindb: 357
Update: records affected: 1



GetName: 20442 LUSAT (LO-19)

Hit Count: updated at: Thu, 23 Jan 2025 16:43:47 GMT